Time,TemperatureF,DewpointF,PressureIn,WindDirection,WindDirectionDegrees,WindSpeedMPH,WindSpeedGustMPH,Humidity,HourlyPrecipIn,Conditions,Clouds,dailyrainin,SoftwareType,DateUTC
2013-07-02 00:06:00,75.1,73.0,29.99,WSW,255,0.0,2.0,92,0.00,,,0.00,weatherlink.com 1.10,2013-07-02 04:06:00,
2013-07-02 00:21:00,75.1,73.0,29.99,WSW,255,0.0,1.0,93,0.00,,,0.00,weatherlink.com 1.10,2013-07-02 04:21:00,
2013-07-02 00:36:00,75.1,73.0,29.99,WSW,255,1.0,4.0,93,0.00,,,0.00,weatherlink.com 1.10,2013-07-02 04:36:00,
2013-07-02 00:51:00,75.1,73.0,29.99,WSW,255,0.0,3.0,93,0.00,,,0.00,weatherlink.com 1.10,2013-07-02 04:51:00,
2013-07-02 01:06:00,75.0,73.0,29.99,WSW,255,0.0,1.0,93,0.00,,,0.00,weatherlink.com 1.10,2013-07-02 05:06:00,
2013-07-02 01:21:00,75.0,73.0,29.99,WSW,255,0.0,0.0,93,0.00,,,0.00,weatherlink.com 1.10,2013-07-02 05:21:00,
2013-07-02 01:36:00,74.9,73.0,30.00,WSW,255,0.0,1.0,94,0.00,,,0.00,weatherlink.com 1.10,2013-07-02 05:36:00,
2013-07-02 01:51:00,74.8,73.0,30.00,WSW,255,0.0,2.0,94,0.00,,,0.00,weatherlink.com 1.10,2013-07-02 05:51:00,
2013-07-02 02:06:00,74.8,73.0,30.00,WSW,255,0.0,2.0,94,0.00,,,0.00,weatherlink.com 1.10,2013-07-02 06:06:00,
2013-07-02 02:21:00,74.7,73.0,30.00,WSW,255,0.0,2.0,95,0.00,,,0.00,weatherlink.com 1.10,2013-07-02 06:21:00,
2013-07-02 02:36:00,74.7,73.0,30.00,WSW,246,0.0,5.0,95,0.00,,,0.00,weatherlink.com 1.10,2013-07-02 06:36:00,
2013-07-02 02:51:00,74.7,73.0,29.99,SW,224,0.0,4.0,95,0.00,,,0.00,weatherlink.com 1.10,2013-07-02 06:51:00,
2013-07-02 03:06:00,74.6,73.0,29.99,SW,234,0.0,7.0,95,0.00,,,0.00,weatherlink.com 1.10,2013-07-02 07:06:00,
2013-07-02 03:21:00,74.3,73.0,29.99,SW,229,0.0,2.0,95,0.00,,,0.00,weatherlink.com 1.10,2013-07-02 07:21:00,
2013-07-02 03:36:00,74.2,73.0,30.00,WSW,243,2.0,5.0,95,0.00,,,0.00,weatherlink.com 1.10,2013-07-02 07:36:00,
2013-07-02 03:51:00,74.1,73.0,30.00,SW,215,0.0,7.0,96,0.00,,,0.00,weatherlink.com 1.10,2013-07-02 07:51:00,
2013-07-02 04:06:00,74.0,73.0,30.00,NW,315,1.0,4.0,96,0.00,,,0.00,weatherlink.com 1.10,2013-07-02 08:06:00,
2013-07-02 04:21:00,74.1,73.0,30.01,SSW,206,3.0,8.0,96,0.01,,,0.01,weatherlink.com 1.10,2013-07-02 08:21:00,
2013-07-02 04:36:00,74.1,73.0,30.01,WSW,240,0.0,6.0,96,0.01,,,0.01,weatherlink.com 1.10,2013-07-02 08:36:00,
2013-07-02 04:51:00,74.0,73.0,30.01,NW,305,5.0,6.0,96,0.01,,,0.01,weatherlink.com 1.10,2013-07-02 08:51:00,
2013-07-02 05:06:00,74.0,73.0,30.01,SSW,204,1.0,8.0,96,0.01,,,0.01,weatherlink.com 1.10,2013-07-02 09:06:00,
2013-07-02 05:21:00,73.7,73.0,30.02,South,174,2.0,4.0,96,0.00,,,0.01,weatherlink.com 1.10,2013-07-02 09:21:00,
2013-07-02 05:36:00,73.5,72.0,30.02,SSW,211,0.0,5.0,96,0.00,,,0.01,weatherlink.com 1.10,2013-07-02 09:36:00,
2013-07-02 05:51:00,73.3,72.0,30.02,West,269,0.0,3.0,96,0.00,,,0.01,weatherlink.com 1.10,2013-07-02 09:51:00,
2013-07-02 06:06:00,73.3,72.0,30.02,SSW,209,0.0,5.0,96,0.00,,,0.01,weatherlink.com 1.10,2013-07-02 10:06:00,
2013-07-02 06:21:00,73.4,73.0,30.03,NW,313,0.0,4.0,97,0.00,,,0.01,weatherlink.com 1.10,2013-07-02 10:21:00,
2013-07-02 06:36:00,73.5,73.0,30.04,NW,313,0.0,1.0,97,0.00,,,0.01,weatherlink.com 1.10,2013-07-02 10:36:00,
2013-07-02 06:51:00,73.5,73.0,30.05,NW,313,0.0,1.0,97,0.00,,,0.01,weatherlink.com 1.10,2013-07-02 10:51:00,
2013-07-02 07:06:00,73.6,73.0,30.05,NW,313,0.0,3.0,97,0.00,,,0.01,weatherlink.com 1.10,2013-07-02 11:06:00,
2013-07-02 07:21:00,73.7,73.0,30.05,West,261,3.0,4.0,97,0.00,,,0.01,weatherlink.com 1.10,2013-07-02 11:21:00,
2013-07-02 07:36:00,73.9,73.0,30.06,WSW,257,0.0,2.0,97,0.00,,,0.01,weatherlink.com 1.10,2013-07-02 11:36:00,
2013-07-02 07:51:00,74.1,73.0,30.06,WSW,257,0.0,1.0,97,0.00,,,0.01,weatherlink.com 1.10,2013-07-02 11:51:00,
2013-07-02 08:06:00,74.5,74.0,30.06,SW,236,3.0,5.0,97,0.00,,,0.01,weatherlink.com 1.10,2013-07-02 12:06:00,
2013-07-02 08:21:00,75.1,74.0,30.07,South,171,0.0,7.0,96,0.00,,,0.01,weatherlink.com 1.10,2013-07-02 12:21:00,
2013-07-02 08:36:00,75.6,74.0,30.07,WSW,242,3.0,5.0,95,0.00,,,0.01,weatherlink.com 1.10,2013-07-02 12:36:00,
2013-07-02 08:51:00,76.0,74.0,30.07,SSW,201,6.0,6.0,94,0.00,,,0.01,weatherlink.com 1.10,2013-07-02 12:51:00,
2013-07-02 09:06:00,76.3,74.0,30.07,WSW,254,0.0,6.0,92,0.00,,,0.01,weatherlink.com 1.10,2013-07-02 13:06:00,
2013-07-02 09:21:00,76.9,74.0,30.07,WSW,238,2.0,7.0,91,0.00,,,0.01,weatherlink.com 1.10,2013-07-02 13:21:00,
2013-07-02 09:38:00,77.7,74.0,30.06,West,275,3.0,6.0,89,0.00,,,0.01,weatherlink.com 1.10,2013-07-02 13:38:00,
2013-07-02 09:52:00,77.8,74.0,30.07,WSW,246,0.0,8.0,88,0.00,,,0.01,weatherlink.com 1.10,2013-07-02 13:52:00,
2013-07-02 10:07:00,77.5,74.0,30.08,NW,323,1.0,7.0,88,0.00,,,0.01,weatherlink.com 1.10,2013-07-02 14:07:00,
2013-07-02 10:23:00,77.1,73.0,30.08,WSW,238,4.0,7.0,88,0.00,,,0.01,weatherlink.com 1.10,2013-07-02 14:23:00,
2013-07-02 10:38:00,77.5,74.0,30.08,West,259,0.0,7.0,89,0.00,,,0.01,weatherlink.com 1.10,2013-07-02 14:38:00,
2013-07-02 10:52:00,77.8,74.0,30.08,SW,230,1.0,8.0,88,0.00,,,0.01,weatherlink.com 1.10,2013-07-02 14:52:00,
2013-07-02 11:07:00,78.0,74.0,30.09,WSW,239,6.0,8.0,86,0.00,,,0.01,weatherlink.com 1.10,2013-07-02 15:07:00,
2013-07-02 11:23:00,77.9,74.0,30.09,West,264,0.0,6.0,87,0.00,,,0.01,weatherlink.com 1.10,2013-07-02 15:23:00,
2013-07-02 11:38:00,78.1,74.0,30.10,WSW,252,0.0,8.0,87,0.00,,,0.01,weatherlink.com 1.10,2013-07-02 15:38:00,
2013-07-02 11:53:00,78.3,75.0,30.09,ESE,121,2.0,8.0,88,0.00,,,0.01,weatherlink.com 1.10,2013-07-02 15:53:00,
2013-07-02 12:08:00,78.6,75.0,30.09,SSE,163,0.0,7.0,87,0.00,,,0.01,weatherlink.com 1.10,2013-07-02 16:08:00,
2013-07-02 12:23:00,79.2,75.0,30.09,SW,234,2.0,8.0,86,0.00,,,0.01,weatherlink.com 1.10,2013-07-02 16:23:00,
2013-07-02 12:37:00,80.8,75.0,30.09,WSW,253,1.0,9.0,83,0.00,,,0.01,weatherlink.com 1.10,2013-07-02 16:37:00,
2013-07-02 12:53:00,81.0,74.0,30.09,SW,215,4.0,7.0,80,0.00,,,0.01,weatherlink.com 1.10,2013-07-02 16:53:00,
2013-07-02 13:09:00,81.0,75.0,30.09,SSW,212,0.0,11.0,81,0.00,,,0.01,weatherlink.com 1.10,2013-07-02 17:09:00,
2013-07-02 13:23:00,82.0,75.0,30.08,WSW,242,3.0,7.0,80,0.00,,,0.01,weatherlink.com 1.10,2013-07-02 17:23:00,
2013-07-02 13:38:00,82.0,75.0,30.08,SSE,161,3.0,9.0,79,0.00,,,0.01,weatherlink.com 1.10,2013-07-02 17:38:00,
2013-07-02 13:54:00,81.5,75.0,30.08,SW,218,2.0,7.0,80,0.00,,,0.01,weatherlink.com 1.10,2013-07-02 17:54:00,
2013-07-02 14:08:00,82.6,75.0,30.08,SW,234,0.0,9.0,78,0.00,,,0.01,weatherlink.com 1.10,2013-07-02 18:08:00,
2013-07-02 14:25:00,81.6,74.0,30.08,SSW,207,0.0,10.0,77,0.00,,,0.01,weatherlink.com 1.10,2013-07-02 18:25:00,
2013-07-02 14:39:00,82.9,75.0,30.07,SE,138,0.0,7.0,78,0.00,,,0.01,weatherlink.com 1.10,2013-07-02 18:39:00,
2013-07-02 14:54:00,82.9,75.0,30.08,SW,234,9.0,11.0,76,0.00,,,0.01,weatherlink.com 1.10,2013-07-02 18:54:00,
2013-07-02 15:08:00,82.6,74.0,30.08,WNW,288,4.0,9.0,76,0.00,,,0.01,weatherlink.com 1.10,2013-07-02 19:08:00,
2013-07-02 15:25:00,83.1,75.0,30.07,WSW,252,0.0,9.0,77,0.00,,,0.01,weatherlink.com 1.10,2013-07-02 19:25:00,
2013-07-02 15:39:00,84.1,75.0,30.07,SW,217,3.0,12.0,75,0.00,,,0.01,weatherlink.com 1.10,2013-07-02 19:39:00,
2013-07-02 15:54:00,83.7,75.0,30.07,WNW,286,0.0,10.0,74,0.00,,,0.01,weatherlink.com 1.10,2013-07-02 19:54:00,
2013-07-02 16:10:00,82.8,75.0,30.07,WNW,286,0.0,7.0,76,0.00,,,0.01,weatherlink.com 1.10,2013-07-02 20:10:00,
2013-07-02 16:25:00,82.2,75.0,30.07,South,173,0.0,10.0,78,0.00,,,0.01,weatherlink.com 1.10,2013-07-02 20:25:00,
2013-07-02 16:39:00,81.8,74.0,30.07,SW,233,4.0,12.0,78,0.00,,,0.01,weatherlink.com 1.10,2013-07-02 20:39:00,
2013-07-02 16:55:00,81.2,74.0,30.08,SW,230,0.0,8.0,79,0.00,,,0.01,weatherlink.com 1.10,2013-07-02 20:55:00,
2013-07-02 17:10:00,80.4,74.0,30.08,West,269,7.0,7.0,81,0.00,,,0.01,weatherlink.com 1.10,2013-07-02 21:10:00,
2013-07-02 17:25:00,80.0,74.0,30.09,SW,217,3.0,9.0,82,0.00,,,0.01,weatherlink.com 1.10,2013-07-02 21:25:00,
2013-07-02 17:40:00,79.8,74.0,30.09,West,270,4.0,12.0,83,0.00,,,0.01,weatherlink.com 1.10,2013-07-02 21:40:00,
2013-07-02 17:54:00,79.7,74.0,30.10,West,261,9.0,11.0,83,0.00,,,0.01,weatherlink.com 1.10,2013-07-02 21:54:00,
2013-07-02 18:09:00,78.9,74.0,30.11,WSW,244,4.0,12.0,84,0.00,,,0.01,weatherlink.com 1.10,2013-07-02 22:09:00,
2013-07-02 18:24:00,78.3,74.0,30.11,SW,235,3.0,7.0,87,0.00,,,0.01,weatherlink.com 1.10,2013-07-02 22:24:00,
2013-07-02 18:40:00,77.9,74.0,30.11,WSW,241,4.0,14.0,88,0.00,,,0.01,weatherlink.com 1.10,2013-07-02 22:40:00,
2013-07-02 19:10:00,77.4,74.0,30.12,SW,229,5.0,10.0,88,0.00,,,0.01,weatherlink.com 1.10,2013-07-02 23:10:00,
2013-07-02 19:25:00,77.2,74.0,30.12,SW,217,3.0,8.0,88,0.00,,,0.01,weatherlink.com 1.10,2013-07-02 23:25:00,
2013-07-02 19:40:00,77.0,73.0,30.12,WNW,284,0.0,6.0,88,0.00,,,0.01,weatherlink.com 1.10,2013-07-02 23:40:00,
2013-07-02 19:55:00,76.6,73.0,30.12,SW,235,1.0,8.0,87,0.00,,,0.01,weatherlink.com 1.10,2013-07-02 23:55:00,
2013-07-02 20:10:00,76.3,73.0,30.12,WSW,258,2.0,7.0,88,0.00,,,0.01,weatherlink.com 1.10,2013-07-03 00:10:00,
2013-07-02 20:25:00,75.9,72.0,30.12,SW,223,1.0,8.0,88,0.00,,,0.01,weatherlink.com 1.10,2013-07-03 00:25:00,
2013-07-02 20:40:00,75.5,72.0,30.12,SW,216,0.0,5.0,88,0.00,,,0.01,weatherlink.com 1.10,2013-07-03 00:40:00,
2013-07-02 20:55:00,75.0,72.0,30.13,WSW,238,0.0,7.0,89,0.00,,,0.01,weatherlink.com 1.10,2013-07-03 00:55:00,
2013-07-02 21:10:00,74.7,71.0,30.13,WSW,238,0.0,6.0,89,0.00,,,0.01,weatherlink.com 1.10,2013-07-03 01:10:00,
2013-07-02 21:25:00,74.6,71.0,30.14,WSW,256,1.0,5.0,89,0.00,,,0.01,weatherlink.com 1.10,2013-07-03 01:25:00,
2013-07-02 21:40:00,74.4,71.0,30.14,NW,305,0.0,6.0,90,0.00,,,0.01,weatherlink.com 1.10,2013-07-03 01:40:00,
2013-07-02 21:55:00,74.3,71.0,30.14,SW,222,0.0,6.0,90,0.00,,,0.01,weatherlink.com 1.10,2013-07-03 01:55:00,
2013-07-02 22:25:00,74.2,72.0,30.14,SSW,210,1.0,4.0,91,0.00,,,0.01,weatherlink.com 1.10,2013-07-03 02:25:00,
2013-07-02 22:40:00,74.1,71.0,30.15,West,265,0.0,5.0,91,0.00,,,0.01,weatherlink.com 1.10,2013-07-03 02:40:00,
2013-07-02 22:55:00,74.0,71.0,30.15,WSW,242,1.0,4.0,91,0.00,,,0.01,weatherlink.com 1.10,2013-07-03 02:55:00,
2013-07-02 23:25:00,73.8,71.0,30.15,WSW,244,0.0,5.0,92,0.00,,,0.01,weatherlink.com 1.10,2013-07-03 03:25:00,
2013-07-02 23:40:00,73.7,72.0,30.15,SSW,209,0.0,5.0,93,0.00,,,0.01,weatherlink.com 1.10,2013-07-03 03:40:00,
2013-07-02 23:55:00,73.6,72.0,30.15,WNW,296,1.0,5.0,93,0.00,,,0.01,weatherlink.com 1.10,2013-07-03 03:55:00,